Location: Brno
(49.2000°N, 16.6330°E)
Time: 04:51:12
(UTC+02:00)

BREEZE M DEB (TANK) - Visible Passes

Search period start: 22 July 2017 00:00
Search period end: 01 August 2017 00:00
Orbit: 302 x 11970 km, 49.6° (Epoch: 20 July)

Date Brightness Start Highest point End Pass type
(mag) Time Alt. Az. Time Alt. Az. Time Alt. Az.
24 Jul 8.0 04:22:56 10° SSE 05:04:28 38° E 06:19:07 10° NE visible
25 Jul 8.2 03:38:50 10° SE 04:17:39 29° E 05:22:19 10° NE visible
26 Jul 8.4 02:57:28 10° ESE 03:32:01 22° ENE 04:23:15 10° NE visible
27 Jul 8.7 02:22:19 10° E 02:47:28 14° ENE 03:19:06 10° NE visible
29 Jul 7.8 04:18:16 10° SSE 04:57:43 45° E 06:18:57 10° NE visible
30 Jul 7.9 03:32:46 10° SSE 04:10:02 36° E 05:22:32 10° NE visible
31 Jul 8.0 02:48:56 10° SE 03:23:37 27° E 04:24:35 10° NE visible
